GFSNIL_con_mucape_000.txt.gz
CAPE
0 0 0 0 0 0 0 0 0 0 0 4 0 8 6 11 0 0 0 0 0 0
0 0 0 0 0 0 0 0 0 6 10 12 30 14 8 0 0 0 0 0 0 0
0 0 0 0 0 0 0 0 2 9 26 11 6 4 2 0 0 0 0 0 0 0
0 0 0 0 0 0 0 0 11 13 12 0 0 0 0 0 0 0 0 0 0 0
0 0 0 0 0 0 0 0 6 1 3 0 0 0 0 0 0 0 0 0 0 0
0 0 0 0 0 0 0 0 2 10 0 0 0 0 0 0 0 0 0 0 0 0
0 0 0 0 0 0 0 0 1 0 0 0 0 0 0 0 0 0 0 0 0 0
0 0 0 0 0 0 0 2 0 0 0 0 0 0 0 0 0 0 0 0 0 0
0 0 0 0 0 0 2 0 0 0 0 6 0 0 0 0 0 0 0 0 0 0
0 0 0 0 0 0 0 1 5 0 3 10 0 0 0 0 0 0 0 0 0 0
0 0 0 0 0 0 3 9 11 5 0 0 0 0 0 0 0 0 0 0 0 0
0 0 0 0 0 0 3 10 9 4 2 0 0 0 0 0 0 0 0 0 0 0
0 0 0 0 0 0 0 0 0 2 0 0 0 0 0 0 0 0 0 0 0 0
0 0 0 0 0 0 0 0 0 0 0 0 0 0 0 0 0 0 0 0 0 0

GFSNIL_con_mucape_003.txt.gz
CAPE
0 0 0 0 0 0 0 0 0 0 0 0 11 13 21 0 0 0 0 0 0 0
0 0 0 0 0 0 0 0 0 0 0 18 26 22 6 0 0 0 0 13 24 20
0 0 0 0 0 0 0 0 0 1 25 16 1 0 0 1 4 0 27 20 26 2
0 0 0 0 0 0 0 0 0 21 7 4 0 0 5 3 0 2 25 7 0 0
0 0 0 0 0 0 0 0 0 2 0 4 1 0 0 0 0 1 0 0 0 0
0 0 0 0 0 0 0 0 0 0 2 0 0 0 0 0 0 0 0 0 0 0
0 0 0 0 0 0 0 0 0 3 1 0 0 0 2 0 0 0 0 0 0 0
0 0 0 0 0 0 0 0 1 0 0 0 0 11 3 0 0 0 0 0 0 0
0 0 0 0 0 0 0 4 0 2 2 1 0 3 0 0 0 0 0 0 0 0
0 0 0 0 0 0 0 3 3 7 8 10 0 0 0 0 0 0 0 0 0 0
0 0 0 0 0 0 0 0 3 12 13 1 0 0 0 0 0 0 0 0 0 0
0 0 0 0 0 0 0 0 0 0 0 0 0 0 0 0 0 0 0 0 0 0
0 0 0 0 0 0 0 0 0 0 0 0 0 0 0 0 0 0 0 0 0 0
0 0 0 0 0 0 0 0 0 0 0 0 0 0 0 0 0 0 0 0 0 0

GFSNIL_con_mucape_006.txt.gz
CAPE
0 0 0 0 0 0 0 0 0 0 7 15 11 7 7 62 48 24 20 13 23 35
0 0 0 0 0 0 0 0 0 12 26 25 9 33 18 44 25 22 13 35 44 45
0 0 0 0 0 0 0 0 0 28 48 14 46 51 58 41 27 16 27 34 41 37
0 0 0 0 0 0 0 0 0 15 44 59 55 71 72 30 25 25 36 46 48 42
0 0 0 0 0 0 0 0 0 7 29 57 64 62 15 23 36 44 38 46 39 32
0 0 0 0 0 0 0 2 8 18 27 21 24 8 13 43 49 36 34 23 20 24
0 0 0 0 0 0 0 4 18 35 48 29 8 3 23 22 32 26 25 16 20 15
0 0 0 0 0 0 2 14 35 12 1 6 8 0 1 4 24 23 1 0 0 0
0 0 0 0 0 0 2 13 37 51 43 44 7 10 1 0 0 0 0 0 0 0
0 0 0 0 0 0 2 20 33 56 47 39 18 0 0 0 0 0 0 0 0 0
0 0 0 0 0 4 14 18 20 32 42 39 0 0 0 0 0 0 0 0 0 0
0 0 0 0 2 12 20 15 26 22 15 2 0 0 0 0 0 0 0 0 0 0
0 0 0 0 2 15 18 9 0 0 0 0 0 0 0 0 0 0 0 0 0 0
0 0 0 0 3 12 17 5 0 0 0 0 0 0 0 0 0 0 0 0 0 0

GFSNIL_con_mucape_009.txt.gz
CAPE
0 0 0 0 0 0 0 0 0 0 0 8 16 10 20 57 77 66 50 32 47 52
0 0 0 0 0 0 0 0 0 0 7 25 32 36 63 60 77 68 54 54 53 53
2 0 0 0 0 0 0 0 0 0 0 20 54 59 52 56 63 39 53 38 57 69
1 0 0 0 0 0 0 0 0 0 0 8 25 44 58 63 76 50 65 73 60 58
0 0 0 0 0 0 0 0 0 0 8 22 31 28 30 50 45 66 59 68 54 48
0 0 0 0 0 0 0 0 0 9 23 30 38 40 54 41 55 45 64 48 53 45
0 0 0 0 0 0 0 0 5 15 20 21 23 19 27 28 36 47 44 38 15 10
0 0 0 0 0 0 0 2 7 21 32 28 36 12 2 14 33 30 21 16 9 1
0 0 0 0 0 0 1 3 12 26 31 47 33 0 0 0 0 0 9 14 1 0
0 0 0 0 0 0 4 12 23 24 27 57 41 0 0 0 0 0 7 2 0 0
0 0 0 0 0 2 14 24 24 24 33 39 10 0 0 0 0 1 2 0 0 0
0 0 0 0 0 2 14 27 31 28 16 16 5 0 0 0 0 1 0 0 0 0
0 0 0 0 0 1 13 21 30 19 5 0 0 0 0 0 0 0 0 0 0 0
0 0 0 0 0 0 6 21 29 1 0 0 0 0 0 0 0 0 0 0 0 0

GFSNIL_con_mucape_012.txt.gz
CAPE
0 0 0 1 14 12 0 0 0 0 0 0 0 0 0 0 5 18 19 1 3 4
0 0 0 8 3 0 0 0 0 0 0 0 1 7 8 14 29 4 4 2 18 6
0 0 6 9 0 0 0 0 0 0 0 0 0 24 24 33 28 26 31 19 5 2
1 4 16 0 0 0 0 0 0 0 0 0 0 0 6 14 5 50 16 11 2 2
4 22 10 0 0 0 0 0 0 0 0 0 10 7 3 9 10 27 13 13 8 0
37 34 24 0 0 0 0 0 0 0 0 10 3 8 8 15 15 6 5 5 0 0
45 44 0 0 0 0 0 0 0 0 11 8 0 4 5 2 0 3 4 1 0 0
6 0 0 0 0 0 0 0 0 0 16 20 19 13 2 0 0 0 0 0 0 0
6 0 0 0 0 0 0 0 0 0 13 18 35 8 3 2 0 0 0 0 0 0
2 0 0 0 0 0 0 0 0 7 5 6 19 11 8 0 0 0 0 0 0 0
0 0 0 0 0 0 0 2 5 6 4 2 4 4 3 0 0 0 0 0 0 0
0 0 0 0 0 0 0 0 3 8 7 6 0 0 0 0 0 0 0 0 0 0
0 0 0 0 0 0 0 0 0 5 1 4 3 1 0 0 0 0 0 0 0 0
0 0 0 0 0 0 0 0 0 1 1 6 1 0 0 0 0 0 0 0 0 0

GFSNIL_con_mucape_015.txt.gz
CAPE
0 0 0 0 0 0 3 3 0 0 0 0 0 0 0 0 0 0 0 0 0 0
0 0 0 0 0 1 0 0 0 0 0 0 0 0 0 0 4 9 0 1 5 1
0 0 0 0 2 10 16 0 0 0 0 0 0 0 1 5 3 5 12 19 9 11
0 0 0 2 10 20 0 0 0 0 0 0 0 0 0 0 0 1 1 0 0 1
1 9 6 13 30 1 1 0 0 0 0 0 0 0 0 0 0 0 0 0 3 7
0 2 11 20 18 0 0 0 0 0 0 0 0 0 0 0 0 0 0 0 0 0
9 6 13 8 0 0 0 0 0 0 0 0 0 0 0 0 0 0 0 0 0 0
3 11 2 0 0 0 0 0 0 0 0 0 0 0 0 0 5 4 1 0 0 0
1 2 0 0 0 0 0 0 0 0 0 0 0 7 3 9 9 3 0 0 0 0
0 0 0 0 0 0 0 0 0 0 0 1 1 0 1 3 5 2 0 0 0 0
0 0 0 0 0 0 0 0 0 0 1 0 1 3 1 6 2 0 0 0 0 0
0 0 0 0 0 0 0 0 0 0 0 0 1 3 10 8 5 0 0 0 0 0
0 0 0 0 0 0 0 0 0 0 0 0 1 8 15 4 0 0 0 0 0 0
0 0 0 0 0 0 0 0 0 0 0 0 0 10 6 0 0 0 0 0 0 0

GFSNIL_con_mucape_018.txt.gz
CAPE
66 30 0 0 0 0 0 0 0 0 1 0 0 0 0 0 0 0 0 0 0 0
86 26 0 0 0 0 0 0 0 0 1 0 0 0 0 0 0 0 4 0 0 0
97 37 0 0 0 0 0 0 0 8 0 0 0 0 0 0 0 0 0 0 0 0
37 1 0 0 0 0 0 1 1 2 0 0 0 0 0 0 0 0 0 0 0 0
54 59 35 5 1 3 6 2 0 0 0 0 0 0 0 0 0 0 0 0 0 0
72 52 29 18 11 10 4 1 4 0 0 0 0 0 0 0 0 0 0 0 0 0
80 48 22 13 7 1 0 0 0 0 0 0 0 0 0 0 1 5 3 5 2 1
46 18 18 12 5 0 0 0 0 0 0 0 0 0 0 1 2 4 6 2 0 0
38 18 15 6 0 0 0 0 0 0 0 0 0 0 3 2 2 3 0 0 0 0
21 11 12 6 2 0 0 0 0 0 0 0 0 0 4 2 4 3 3 0 0 0
25 15 9 6 1 0 0 0 0 0 0 0 0 0 1 3 6 11 5 0 0 0
27 32 15 3 0 0 0 0 0 0 0 0 0 0 0 3 7 8 0 0 0 0
1 0 0 0 0 0 0 0 0 0 0 0 0 0 0 3 10 0 0 0 0 0
18 37 0 0 0 0 0 0 0 0 0 0 0 0 0 5 1 0 0 0 0 0

GFSNIL_con_mucape_021.txt.gz
CAPE
309 242 142 68 38 31 24 0 3 1 0 0 1 14 0 0 0 0 0 0 0 0
186 132 41 26 47 51 21 4 4 0 0 3 0 3 0 0 0 0 0 0 0 0
92 42 51 42 70 44 4 0 3 1 2 2 0 10 0 0 0 0 0 0 0 0
125 92 64 74 27 30 8 2 20 14 11 3 6 0 0 0 0 0 0 0 0 0
70 59 55 43 46 61 28 23 20 12 10 15 2 0 0 0 0 0 0 0 0 0
51 44 36 40 51 28 20 17 11 6 6 1 0 0 0 0 0 0 0 0 0 0
30 29 33 51 32 32 15 17 10 7 2 0 0 0 0 0 0 0 0 0 0 0
13 33 58 51 36 24 19 18 13 7 0 0 0 0 0 0 0 0 3 0 0 0
50 73 59 39 46 28 21 8 1 0 0 0 0 0 0 0 0 2 2 1 5 11
60 51 30 24 17 12 12 5 0 0 0 0 0 0 0 0 0 2 4 5 3 1
63 43 19 6 21 11 5 0 0 0 0 0 0 0 0 0 0 1 0 1 0 0
84 54 17 1 1 18 0 0 0 0 0 0 0 0 0 0 0 0 0 1 0 0
39 22 29 1 13 0 0 0 0 0 0 0 0 0 0 0 0 0 0 0 0 0
41 29 15 4 0 0 0 0 0 0 0 0 0 0 0 0 0 0 0 0 0 0

GFSNIL_con_mucape_024.txt.gz
CAPE
225 347 224 154 100 137 95 37 38 60 30 2 13 14 13 11 4 3 0 0 0 0
184 128 219 135 110 169 80 44 50 27 24 31 26 2 4 9 1 0 0 0 0 0
344 332 310 138 95 123 57 51 45 10 21 26 7 18 12 2 0 0 0 0 0 0
531 455 289 126 59 64 47 93 33 26 27 24 17 16 6 0 0 0 0 0 0 0
317 225 86 52 19 55 53 45 43 20 22 15 21 13 4 0 0 0 0 0 0 0
306 146 65 27 42 41 36 58 34 22 14 19 9 2 0 0 0 0 0 0 0 0
83 67 47 51 22 41 40 41 26 19 27 27 14 0 0 0 0 0 0 0 0 0
50 44 55 45 32 40 31 27 9 30 15 6 0 0 0 0 0 0 0 0 0 1
55 54 66 43 41 30 33 29 17 8 0 13 0 0 0 0 0 0 0 0 1 3
44 58 54 44 59 59 64 49 24 14 0 0 0 0 0 0 0 0 0 0 1 2
14 48 64 70 54 26 3 4 28 0 0 0 0 0 0 0 0 0 0 0 1 4
42 53 76 58 63 42 19 0 0 0 0 0 0 0 0 0 0 0 0 0 1 2
43 65 31 8 0 0 0 0 0 0 0 0 0 0 0 0 0 0 0 0 0 1
8 1 0 0 0 0 0 0 0 0 0 0 0 0 0 0 0 0 0 0 0 0

GFSNIL_con_mucape_027.txt.gz
CAPE
385 317 194 81 99 142 73 52 86 81 57 56 43 9 8 1 0 0 0 0 0 0
374 283 149 91 77 133 90 110 55 47 49 22 0 4 0 1 9 1 0 0 0 0
271 283 202 104 108 128 101 100 60 58 19 3 7 0 0 0 1 3 0 0 0 0
272 165 167 131 130 160 132 84 20 40 4 20 6 1 0 2 5 0 0 0 0 0
293 294 281 152 183 119 66 20 34 47 23 30 0 0 0 4 0 0 0 0 0 0
339 280 179 81 76 88 50 45 48 28 34 6 3 3 2 1 0 0 0 0 0 0
425 305 126 68 57 42 56 47 13 17 10 3 1 1 0 0 0 0 0 0 0 0
87 144 123 50 16 42 44 48 32 16 19 5 0 3 0 0 0 0 0 0 0 0
0 18 14 27 39 63 59 44 29 5 11 15 9 0 0 0 0 0 0 0 0 0
0 0 1 21 48 54 31 19 21 3 0 7 0 0 0 0 0 0 0 0 0 0
0 0 0 9 26 53 34 9 7 1 1 0 0 0 0 0 0 0 0 0 0 0
0 0 1 10 1 0 0 0 0 0 0 0 0 0 0 0 0 0 0 0 0 0
0 0 0 0 0 0 0 0 0 0 0 0 0 0 0 0 0 0 0 0 0 0
0 0 0 0 0 0 0 0 0 0 0 0 0 0 0 0 0 0 0 0 0 0

GFSNIL_con_mucape_030.txt.gz
CAPE
483 262 174 139 212 159 101 41 63 58 0 25 39 18 19 0 0 0 0 0 0 0
532 246 197 116 145 101 64 41 38 61 40 48 73 38 32 0 5 0 0 0 1 0
699 504 419 186 173 120 66 59 46 54 58 44 0 1 1 3 3 4 0 0 0 0
874 514 439 139 84 131 102 76 75 57 23 0 0 4 8 9 5 7 5 0 0 0
448 482 477 269 139 112 96 49 72 61 28 13 8 2 7 6 0 0 0 0 0 0
295 357 406 373 206 109 75 73 82 95 60 53 0 5 1 1 1 0 0 0 0 0
470 381 307 250 156 89 32 28 39 60 33 21 7 3 9 5 1 0 0 0 0 0
11 3 15 40 69 65 63 47 24 30 11 10 0 6 4 10 0 0 0 0 0 0
0 0 0 0 0 1 6 26 14 43 3 1 0 0 0 0 0 0 0 0 0 0
0 0 0 0 0 2 2 14 24 10 6 9 0 0 0 0 0 0 0 0 0 0
0 0 0 0 0 0 4 0 0 0 0 0 0 0 0 0 0 0 0 0 0 0
0 0 0 0 0 0 0 0 0 0 0 0 0 0 0 3 0 0 0 0 0 0
0 0 0 0 0 0 0 0 0 0 0 5 2 0 0 0 0 0 0 3 0 0
0 0 0 0 0 0 0 0 0 0 0 0 0 0 0 0 0 0 0 0 2 9

GFSNIL_con_mucape_033.txt.gz
CAPE
1116 1179 1466 1034 534 55 28 30 42 0 4 41 40 17 4 1 0 2 0 0 0 0
1308 1272 1403 1061 542 121 38 40 51 82 9 2 24 35 8 0 0 0 0 0 3 2
1555 1255 1130 781 264 184 100 51 6 3 13 21 35 21 5 0 0 0 3 5 2 6
1505 1158 948 541 366 322 148 63 36 48 37 42 65 24 14 3 1 0 0 3 0 0
1173 979 872 514 283 367 299 116 49 49 49 53 64 57 3 0 1 0 4 0 0 0
1196 957 908 543 297 239 191 149 263 282 82 120 69 48 32 4 2 1 1 0 0 0
723 708 485 298 211 159 109 156 143 94 63 64 87 16 28 9 0 4 0 0 0 0
398 122 25 7 2 8 33 32 17 61 45 38 53 21 20 1 1 0 0 0 0 0
17 0 0 0 0 0 0 0 4 6 4 6 6 11 0 0 0 0 0 0 0 0
0 0 0 0 0 0 0 0 2 5 2 8 0 0 0 0 0 0 0 0 0 0
0 0 0 0 0 0 0 0 0 0 0 0 0 0 0 0 0 0 0 0 9 14
0 0 0 0 0 0 0 0 0 0 0 0 0 0 0 4 0 0 0 0 0 2
0 0 0 0 0 0 0 0 0 0 0 0 0 0 0 0 0 0 0 0 0 1
0 0 0 0 0 0 0 0 0 0 0 0 0 0 0 0 0 0 0 0 0 8

GFSNIL_con_mucape_036.txt.gz
CAPE
649 828 869 745 648 507 363 264 133 36 11 36 0 0 5 24 30 17 0 0 0 0
1080 844 789 476 507 544 320 249 118 31 41 19 22 32 34 19 33 14 7 3 0 0
881 854 699 548 711 599 432 257 228 57 43 58 53 36 32 38 8 25 0 8 2 0
787 704 329 689 758 537 365 278 213 182 133 90 51 59 47 24 15 0 2 3 1 0
1108 1105 924 798 683 582 580 196 124 88 102 67 51 59 29 56 32 6 2 0 2 1
1176 1085 819 779 913 680 516 429 154 66 51 220 156 65 35 15 10 8 1 3 8 0
1340 881 756 705 707 562 176 62 41 57 27 17 11 33 26 8 24 3 3 0 0 0
918 641 499 295 111 47 0 1 1 0 0 8 11 18 24 2 5 2 6 0 0 0
371 129 35 8 0 0 0 0 0 0 0 0 2 2 3 11 0 2 0 0 0 0
52 10 2 0 0 0 0 0 0 0 0 1 2 0 0 0 0 0 0 0 0 0
0 0 0 0 0 0 0 0 0 0 0 0 0 0 0 0 0 0 0 0 0 0
0 0 0 0 0 0 0 0 0 0 0 0 0 0 0 0 0 0 0 0 0 0
0 0 0 0 0 0 0 0 0 0 0 0 0 0 0 0 0 0 0 0 0 0
0 0 0 0 0 0 0 0 0 0 0 0 0 0 0 0 0 0 0 0 0 0

GFSNIL_con_mucape_039.txt.gz
CAPE
59 144 153 59 191 355 270 333 318 311 279 146 133 82 46 40 0 37 35 24 15 5
152 106 211 135 274 212 241 145 137 238 232 206 177 75 50 36 31 61 54 22 13 1
392 321 302 482 263 88 28 115 128 192 129 108 76 72 58 62 69 94 29 30 9 4
389 454 495 411 243 93 76 194 247 188 138 172 131 107 104 91 40 33 26 34 18 16
259 316 330 446 186 43 162 465 327 223 218 244 89 113 150 31 51 47 14 0 6 6
506 523 186 181 291 246 481 261 267 284 149 168 40 86 11 1 3 22 5 7 12 5
803 640 651 590 533 511 447 279 216 144 20 3 3 5 3 6 15 4 9 8 4 0
894 926 760 538 376 211 247 81 28 4 4 4 5 7 11 16 13 8 3 0 1 7
945 886 713 401 227 57 21 0 2 3 1 3 6 6 4 0 11 4 8 3 0 0
775 582 227 32 2 0 0 0 0 0 0 0 0 4 2 2 1 0 0 0 0 0
246 54 4 0 0 0 0 0 0 0 0 0 0 0 0 0 0 0 0 0 0 0
12 0 0 0 0 0 0 0 0 0 0 0 0 0 0 0 0 0 0 0 0 0
0 0 0 0 0 0 0 0 0 0 0 0 0 0 0 0 0 0 0 0 0 0
0 0 0 0 0 0 0 0 0 0 0 0 0 0 0 0 0 0 0 0 0 0

GFSNIL_con_mucape_042.txt.gz
CAPE
0 0 0 1 31 53 36 75 123 126 199 199 128 115 91 107 75 54 37 21 34 23
0 2 34 79 84 113 49 116 228 270 165 201 93 101 97 106 89 76 55 37 69 34
37 40 40 61 86 119 62 122 221 157 82 63 112 104 105 83 73 61 58 60 56 58
16 54 113 114 139 136 116 83 98 53 104 95 72 115 95 94 67 60 43 78 38 7
113 130 161 147 124 191 7 40 0 55 92 155 172 167 206 245 145 57 63 20 26 15
299 221 269 280 286 229 155 96 22 59 333 545 195 152 120 128 84 23 3 0 5 2
124 227 396 413 352 104 208 272 185 297 581 202 124 53 13 5 2 1 0 14 6 9
329 303 391 461 466 344 162 389 482 367 111 57 4 4 6 7 6 12 4 12 5 8
684 619 557 471 468 574 370 270 109 67 5 3 7 6 7 6 2 4 4 5 13 17
635 527 533 399 249 143 79 42 0 2 4 4 5 6 6 5 5 3 3 6 2 0
467 391 349 264 112 57 1 0 0 0 0 0 0 0 0 2 0 0 0 0 0 0
321 224 124 62 13 0 0 0 0 0 0 0 0 0 0 0 0 0 0 0 0 0
160 68 16 0 0 0 0 0 0 0 0 0 0 0 0 0 0 0 0 0 0 0
0 0 0 0 0 0 0 0 0 0 0 0 0 0 0 0 0 0 0 0 0 0

GFSNIL_con_mucape_045.txt.gz
CAPE
0 0 0 0 0 0 0 0 0 1 1 10 83 79 63 88 82 52 46 46 67 61
0 0 0 0 0 0 0 0 1 11 56 38 50 12 45 84 1 37 72 54 66 60
0 0 0 0 1 0 3 15 46 65 85 79 94 94 144 115 99 87 96 94 81 53
0 0 0 0 0 6 6 33 74 87 89 75 67 90 129 76 78 77 102 113 64 76
45 1 0 1 1 10 24 41 39 59 57 0 0 44 75 57 22 74 98 93 70 21
177 103 42 42 20 13 82 74 90 69 52 23 34 36 58 227 178 183 145 46 61 57
262 212 156 103 93 154 131 168 150 120 45 39 50 43 343 280 202 156 81 7 12 13
417 344 255 236 260 163 296 392 305 208 154 122 321 200 207 80 36 11 5 3 5 3
537 399 343 341 285 407 517 496 444 116 254 336 294 252 50 39 2 6 7 7 2 11
535 506 458 350 298 205 288 296 311 214 285 285 139 52 1 3 8 1 8 5 2 2
623 516 543 484 348 322 231 317 290 197 107 59 8 6 5 3 4 6 6 7 2 2
726 491 287 273 255 375 73 61 47 16 0 4 2 1 0 0 0 5 4 3 1 2
244 259 260 202 98 55 50 3 0 0 0 0 0 1 0 1 3 0 0 0 0 0
141 101 76 76 37 7 0 0 0 0 0 0 0 0 0 0 0 0 0 0 0 0

GFSNIL_con_mucape_048.txt.gz
CAPE
0 0 0 0 0 0 0 0 0 0 0 0 0 1 12 60 115 113 59 66 64 51
0 0 0 0 0 0 0 0 0 0 0 0 22 20 41 61 34 4 19 46 54 62
0 0 0 0 0 0 0 0 0 0 0 7 39 58 68 50 10 0 6 54 9 38
0 0 0 0 0 0 0 0 0 0 1 13 28 45 29 49 6 0 78 94 97 75
110 9 4 8 21 0 0 0 11 0 22 36 18 44 116 80 33 21 155 103 84 37
228 179 85 37 18 14 6 2 1 5 8 47 56 43 19 5 3 30 76 122 141 48
318 281 243 189 142 24 24 14 19 23 44 64 106 53 74 20 26 47 201 78 59 109
249 255 256 296 257 205 129 71 76 78 141 99 151 110 65 50 42 155 144 97 39 37
233 213 228 376 326 292 263 229 194 219 156 205 563 257 195 125 154 105 120 71 38 4
200 205 255 408 354 336 359 273 293 181 401 271 367 379 139 220 173 183 73 6 3 5
218 266 360 374 358 323 372 283 246 158 124 462 214 126 133 77 68 8 3 3 7 8
323 373 348 325 286 288 333 331 310 241 378 207 111 71 24 3 1 5 6 8 14 5
519 483 305 436 419 191 121 129 141 106 81 52 10 4 2 3 7 6 5 8 6 5
572 364 185 54 52 184 145 115 70 51 48 2 0 0 5 4 0 0 0 0 0 0

GFSNIL_con_mucape_051.txt.gz
CAPE
0 0 0 0 0 0 0 0 0 1 5 5 0 11 47 75 57 27 11 36 78 45
0 0 0 0 0 0 0 0 0 0 0 0 0 10 14 27 41 38 55 59 34 6
0 0 0 0 0 0 0 0 0 0 0 0 1 0 2 21 23 29 37 46 70 45
0 0 0 0 0 0 0 0 0 0 0 1 8 32 38 44 38 39 12 1 20 17
0 0 0 0 0 0 0 0 0 0 0 0 7 36 21 10 51 40 22 44 40 24
175 127 129 32 14 0 3 1 0 0 0 1 0 0 4 17 8 42 46 49 25 6
216 224 240 236 241 217 167 72 29 7 2 0 0 5 8 22 46 78 8 3 8 38
203 204 206 200 190 188 193 209 174 57 12 11 6 12 41 67 72 162 71 34 27 66
118 135 144 154 165 161 233 244 217 166 53 35 27 57 95 75 92 123 18 19 35 87
55 89 110 139 143 165 290 296 284 241 197 187 136 154 126 158 151 220 359 135 102 138
69 72 111 113 138 203 291 300 285 288 233 213 283 239 69 71 116 149 89 160 148 90
122 101 95 155 198 258 299 202 231 301 243 298 178 150 97 66 52 57 79 79 64 9
140 158 213 329 366 194 161 152 219 229 259 160 156 196 102 72 63 51 39 5 1 4
216 285 315 260 225 175 71 109 43 143 126 36 78 74 40 81 42 3 1 1 5 2

GFSNIL_con_mucape_054.txt.gz
CAPE
28 61 19 9 1 3 0 21 17 42 66 56 73 94 119 138 215 262 391 396 388 312
26 39 40 14 18 8 8 4 27 9 9 3 7 27 56 134 89 226 394 316 378 461
46 47 62 70 45 22 32 12 0 0 0 12 20 42 42 143 120 182 349 246 347 275
114 62 52 171 101 44 34 22 5 8 4 7 17 41 82 146 181 254 365 308 155 79
43 38 79 126 109 151 108 10 31 22 5 5 54 77 99 106 70 135 188 198 80 16
64 95 175 108 15 2 3 6 4 2 1 1 1 3 20 24 117 181 106 146 4 21
157 148 162 71 33 45 15 0 0 0 0 1 0 0 2 7 40 97 81 66 52 49
196 178 185 176 158 170 155 149 157 169 150 99 1 11 9 44 49 56 28 43 64 108
95 133 180 200 183 163 165 164 169 168 198 197 169 44 52 46 25 30 19 87 115 75
61 61 91 112 110 119 112 106 127 151 187 212 212 209 168 62 38 25 97 164 174 158
67 63 60 56 46 51 82 152 232 192 241 233 223 184 180 178 230 157 121 143 167 152
169 129 130 144 161 221 142 162 205 280 294 232 239 200 244 286 168 92 75 101 96 156
231 228 235 236 239 124 165 225 248 217 239 316 328 434 375 241 174 98 81 84 127 95
202 203 139 118 108 157 310 315 251 247 365 145 173 139 181 214 194 178 125 137 66 66

GFSNIL_con_mucape_060.txt.gz
CAPE
0 0 1 6 8 6 7 2 3 22 15 47 61 87 177 170 148 128 161 118 74 160
0 0 0 3 7 9 10 5 2 32 36 19 35 90 130 126 118 104 117 103 175 109
0 0 0 0 0 0 0 0 7 8 56 55 47 83 132 134 82 100 107 105 81 121
2 2 0 0 0 0 0 0 0 0 3 10 44 56 60 53 61 78 74 63 61 125
7 8 0 0 0 1 0 0 0 0 0 0 0 5 14 17 16 26 30 35 44 44
2 5 4 0 0 0 0 25 12 0 0 0 0 0 0 5 4 3 0 0 0 2
53 30 11 29 14 18 50 22 43 36 6 0 0 0 0 0 0 0 0 0 0 3
145 151 169 142 105 87 78 137 93 83 42 32 20 0 0 0 0 0 0 0 0 1
120 148 200 210 200 225 172 145 183 165 114 86 45 46 41 19 13 8 22 70 109 82
420 237 207 214 192 223 233 213 162 132 131 107 86 95 80 63 51 60 73 88 103 65
670 590 438 302 219 222 222 200 171 131 94 75 88 104 132 103 88 72 60 43 82 57
679 631 587 472 376 347 278 222 180 138 112 69 90 95 111 113 98 74 78 48 44 61
127 561 535 553 507 417 335 243 236 180 146 90 80 77 84 97 75 70 42 33 48 106
6 198 533 481 485 388 353 343 251 294 491 469 231 256 193 102 155 107 47 108 45 42

GFSNIL_con_mucape_063.txt.gz
CAPE
0 0 0 0 0 0 0 13 9 4 1 16 56 79 76 81 102 100 61 100 116 87
0 0 0 0 0 4 2 11 11 4 0 5 16 57 88 123 92 106 127 123 119 87
0 3 0 0 0 0 0 3 4 8 2 3 0 29 73 72 89 86 66 59 70 74
1 4 5 0 0 0 0 0 0 0 0 1 5 0 10 26 40 50 31 11 11 15
1 1 2 3 0 0 0 0 0 0 0 0 0 2 0 0 7 10 7 3 7 0
0 2 2 1 2 0 0 0 0 0 0 0 0 0 0 0 0 0 0 1 0 0
27 0 0 0 5 9 1 0 0 0 0 0 0 0 0 0 0 1 3 2 0 0
195 161 55 3 0 6 2 0 0 0 0 0 0 0 0 0 0 0 0 0 0 0
466 359 339 281 196 27 0 0 3 0 1 10 3 0 0 0 0 0 0 0 0 0
411 541 459 431 344 320 233 106 40 30 37 39 50 45 22 34 28 23 23 9 5 1
187 407 582 416 374 364 291 261 242 167 94 79 103 85 99 115 74 94 55 80 64 73
0 4 281 475 539 503 415 341 313 317 229 183 164 181 258 267 275 459 221 308 190 124
0 0 0 0 100 533 604 534 426 369 373 416 297 529 373 250 210 182 164 150 115 128
0 0 0 0 0 188 521 620 566 493 417 515 530 480 425 252 216 277 128 190 89 91

GFSNIL_con_mucape_066.txt.gz
CAPE
0 0 0 0 0 8 4 14 7 4 2 6 4 2 0 88 51 17 6 31 43 59
0 0 0 0 0 0 1 10 12 12 6 7 3 14 7 9 48 65 34 15 20 47
0 0 0 0 0 0 0 0 13 17 17 11 5 12 43 46 28 15 16 44 62 52
1 1 0 0 0 0 0 0 0 6 8 11 7 1 1 17 29 29 24 19 36 42
0 2 2 1 4 0 0 0 0 0 0 0 0 0 0 0 0 6 19 25 21 3
72 0 0 0 1 2 3 0 0 0 0 0 0 0 0 0 0 0 0 2 1 0
200 102 65 12 0 0 1 4 0 0 0 0 0 0 0 0 0 0 0 0 0 0
146 132 105 88 82 54 0 0 2 2 4 0 0 1 1 0 0 0 0 0 0 0
223 159 184 237 236 152 95 80 43 0 3 13 0 0 2 1 0 0 0 0 0 1
78 103 108 170 145 183 371 313 207 186 139 90 9 0 0 0 0 0 0 0 0 0
0 9 58 83 117 119 126 186 194 235 294 221 230 268 155 44 7 0 0 0 0 0
0 0 0 90 118 129 155 161 155 259 308 278 311 332 313 283 235 116 47 46 36 66
0 0 0 0 0 0 28 150 279 259 241 272 309 345 399 327 312 222 302 341 247 84
0 0 0 0 0 0 0 0 0 32 152 197 235 337 336 453 372 334 312 284 220 213

GFSNIL_con_mucape_069.txt.gz
CAPE
0 0 0 12 1 1 2 4 15 1 17 8 53 50 61 53 44 15 1 32 43 41
0 0 0 0 0 15 1 10 15 7 1 4 14 2 8 30 34 60 4 0 15 32
1 0 0 0 0 0 3 4 8 12 4 4 6 14 12 7 13 8 0 0 13 9
0 0 0 0 0 0 0 1 5 10 8 9 4 6 6 5 1 1 12 45 61 34
6 0 0 0 0 0 0 0 0 2 5 9 6 8 8 5 17 25 6 0 2 4
162 122 31 1 2 0 0 0 0 0 0 0 2 0 8 13 0 0 0 15 22 20
115 135 144 112 49 5 0 1 2 0 0 0 0 0 0 0 0 0 0 0 0 0
96 99 131 140 115 100 84 57 15 0 3 2 0 0 0 0 0 0 0 0 0 0
39 27 38 42 132 92 94 156 89 145 124 69 12 0 0 0 0 0 0 0 0 0
3 42 55 79 75 45 39 52 69 83 111 113 181 234 210 123 4 0 0 0 0 1
0 0 0 0 5 77 66 54 18 11 27 67 101 222 243 219 178 135 67 14 0 0
0 0 0 0 0 0 1 17 76 73 78 38 25 71 98 142 197 212 161 224 184 160
0 0 0 0 0 0 0 0 0 0 0 7 23 67 93 65 62 125 133 221 269 187
0 0 0 0 0 0 0 0 0 0 0 0 0 0 17 64 144 153 197 154 167 249

GFSNIL_con_mucape_072.txt.gz
CAPE
5 0 0 2 0 0 0 1 3 14 8 19 12 16 3 0 4 42 48 71 80 66
3 0 0 0 0 4 5 0 13 25 10 25 25 16 10 0 16 0 19 34 39 40
0 0 0 0 0 10 0 0 13 26 27 41 39 9 22 1 26 15 45 28 42 22
0 0 0 0 0 2 0 0 3 11 35 39 23 14 0 18 16 9 14 38 6 24
17 0 0 0 0 0 0 0 0 5 5 18 25 16 14 29 32 36 29 9 1 0
145 103 45 0 0 0 0 0 0 0 2 11 14 4 0 8 10 14 22 1 0 0
122 114 149 118 28 2 0 0 0 0 0 0 0 0 0 0 0 0 1 2 0 0
68 61 69 70 71 129 176 81 97 17 1 0 0 0 0 0 0 0 0 0 0 0
20 28 76 31 36 61 77 49 162 87 91 162 162 87 24 0 0 0 0 0 0 0
0 0 2 12 9 6 26 25 27 23 32 35 49 64 62 63 69 104 105 36 15 1
0 0 0 0 0 1 1 2 6 16 4 3 8 0 4 16 21 38 28 60 79 114
0 0 0 0 0 0 0 0 0 0 1 4 6 2 2 2 9 16 6 44 45 62
0 0 0 0 0 0 0 0 0 0 0 0 0 0 0 0 0 2 5 5 5 8
0 0 0 0 0 0 0 0 0 0 0 0 0 0 0 0 0 0 0 2 15 19

GFSNIL_con_mucape_075.txt.gz
CAPE
4 4 16 10 12 9 1 2 2 16 20 7 5 9 13 1 0 0 2 0 70 61
1 1 2 0 1 1 2 1 11 3 12 22 25 21 12 13 5 1 0 0 0 0
4 2 4 0 4 4 8 0 0 4 10 14 8 24 16 9 6 3 1 0 1 0
8 5 0 0 3 1 1 0 0 7 16 7 7 32 30 1 6 4 5 1 0 0
9 9 2 0 0 0 0 0 0 3 6 29 37 27 39 1 5 3 2 4 9 3
36 2 0 0 0 0 0 0 0 0 0 2 0 2 3 6 18 5 9 42 40 32
115 60 53 2 0 0 0 0 0 0 0 0 0 2 3 4 8 18 16 12 12 17
120 101 72 28 30 3 3 2 0 0 0 0 0 0 0 0 0 2 0 31 6 22
36 49 54 76 72 54 25 14 13 8 4 5 2 1 4 3 6 5 2 0 0 0
6 0 0 3 11 16 45 60 116 43 117 129 6 5 0 2 3 5 8 12 18 15
0 0 0 0 1 1 2 2 5 3 4 3 3 2 1 0 3 5 19 16 28 6
0 0 0 0 0 0 0 0 0 2 2 1 1 1 2 3 3 5 5 10 7 5
0 0 0 0 0 0 0 0 0 0 0 0 0 0 0 0 0 0 0 1 1 6
0 0 0 0 0 0 0 0 0 0 0 0 0 0 0 0 0 0 0 0 0 1

GFSNIL_con_mucape_081.txt.gz
CAPE
280 270 292 237 93 47 12 47 8 8 30 28 19 14 33 98 128 123 171 155 147 132
236 132 102 90 121 182 116 44 4 23 4 19 17 11 13 18 41 105 101 103 132 114
172 65 108 100 37 10 17 28 60 30 5 12 9 15 27 0 14 0 0 0 0 0
166 80 66 56 33 16 44 42 19 67 33 14 0 6 4 2 4 0 0 3 0 0
9 11 27 22 24 29 28 26 15 8 8 3 0 0 1 3 15 20 1 8 0 3
13 36 17 7 8 8 8 3 8 6 1 6 2 14 2 14 14 3 8 1 3 10
5 14 19 8 35 31 20 5 6 19 8 1 0 4 17 1 10 13 44 31 45 18
0 4 2 6 6 3 12 4 12 5 0 9 7 17 28 46 23 48 65 102 68 70
25 4 7 8 9 5 3 16 10 6 0 0 6 1 0 0 10 37 2 0 5 19
185 95 79 32 32 25 11 11 10 11 5 4 1 6 0 0 0 0 0 0 0 3
115 71 50 40 94 308 227 109 120 53 39 26 32 32 42 27 42 41 53 52 62 51
7 2 0 0 0 2 42 75 59 37 59 67 39 15 9 0 1 3 3 3 2 2
5 4 1 0 0 0 0 0 0 0 0 0 0 0 0 0 0 0 0 0 0 0
0 11 0 0 0 0 0 0 0 0 0 0 0 0 0 0 0 0 0 0 0 0

GFSNIL_con_mucape_084.txt.gz
CAPE
497 232 229 206 65 3 9 2 11 0 2 13 2 9 31 30 14 17 11 38 76 86
377 218 282 204 219 31 1 0 63 1 1 10 23 20 25 22 13 15 21 35 68 93
307 126 226 262 169 71 23 0 6 7 21 11 14 12 5 15 37 27 43 54 67 52
167 82 329 163 74 13 40 29 14 5 10 0 5 17 1 19 30 0 0 47 55 50
214 91 103 50 17 17 20 14 17 6 12 11 0 7 6 1 5 2 27 11 0 0
101 233 144 89 15 11 13 12 2 5 6 1 11 4 4 4 11 5 13 28 3 14
74 30 48 14 16 7 5 4 8 6 9 6 0 10 5 7 14 24 6 10 16 22
79 66 40 24 9 3 7 6 3 2 4 7 10 0 2 15 25 8 23 3 29 30
68 19 0 10 5 6 2 7 3 5 3 9 1 4 6 10 11 6 25 23 20 42
75 23 0 0 0 0 5 3 6 5 3 6 3 0 0 0 1 8 15 34 45 10
82 37 47 62 65 25 14 10 14 0 1 5 3 2 3 5 2 5 4 4 10 13
177 139 174 164 101 68 27 8 22 42 42 48 28 50 58 40 32 23 19 16 15 19
16 57 47 5 4 9 0 0 3 0 2 0 8 8 1 0 0 0 0 0 0 0
0 7 0 0 0 8 1 2 2 0 0 0 0 0 0 0 0 0 0 0 0 0

GFSNIL_con_mucape_090.txt.gz
CAPE
750 650 557 487 273 196 212 194 149 100 96 174 133 49 42 66 67 21 2 8 6 9
910 705 451 314 371 256 171 251 44 36 103 86 74 31 70 43 15 12 4 36 9 0
824 642 454 373 337 222 113 162 41 9 23 31 33 12 16 19 13 11 35 19 4 8
672 667 477 360 182 153 98 47 0 14 51 40 31 8 27 5 12 13 32 7 9 16
454 467 430 257 248 141 133 38 46 12 16 14 9 20 23 16 8 19 22 5 2 17
596 321 256 150 201 198 107 49 67 13 17 23 21 9 15 22 10 7 13 10 0 15
459 252 156 157 127 54 81 48 35 19 15 6 17 12 7 7 0 36 45 21 25 4
249 320 153 54 58 45 38 8 5 30 10 9 2 5 10 5 3 1 26 33 6 26
287 412 71 28 12 14 3 14 8 7 6 8 0 5 17 19 14 10 12 11 0 17
153 185 140 25 29 19 0 9 7 7 7 25 6 5 12 8 5 30 7 2 8 3
177 64 105 38 6 8 6 5 11 8 7 5 8 26 0 4 10 3 13 8 16 4
52 0 11 8 22 9 5 0 8 13 8 14 16 18 26 23 23 11 12 12 16 2
5 6 0 14 15 7 8 3 2 0 5 16 11 15 20 25 27 20 17 25 15 24
0 0 2 1 0 0 0 16 0 0 4 3 11 0 3 15 20 14 27 16 9 0

GFSNIL_con_mucape_093.txt.gz
CAPE
1519 1280 948 577 276 306 187 159 196 537 311 157 180 234 184 195 125 73 77 49 18 10
1114 1121 774 400 258 236 230 350 422 204 149 115 224 243 169 236 102 100 91 56 31 11
967 783 412 368 330 219 208 209 237 182 94 75 178 195 85 42 37 70 37 8 19 1
626 583 374 332 220 262 232 189 126 48 34 34 22 32 39 27 18 7 5 5 10 12
506 341 225 279 253 228 168 78 29 1 13 37 25 14 22 3 6 26 14 25 26 35
328 303 298 282 203 166 110 64 33 14 26 24 31 32 41 20 16 9 26 17 8 5
254 330 207 188 164 122 117 53 21 11 8 9 27 47 29 16 2 28 28 31 37 11
154 185 115 236 145 111 34 41 40 19 4 18 13 24 5 6 3 1 5 27 21 9
1 125 81 207 150 22 12 10 9 9 10 27 12 7 9 9 6 6 1 0 25 16
19 64 100 154 28 24 0 0 9 6 5 11 3 9 4 22 27 19 23 5 8 8
21 22 57 74 7 2 0 2 0 0 1 4 10 31 17 20 11 15 1 5 22 10
0 16 81 108 25 17 12 0 0 1 0 6 32 38 14 21 17 32 14 3 8 7
3 3 12 24 14 23 2 11 12 5 0 0 11 25 18 32 31 26 24 15 21 34
0 0 0 5 8 12 2 4 8 13 6 4 2 13 15 37 22 21 20 28 30 14

GFSNIL_con_mucape_096.txt.gz
CAPE
1305 1202 1159 991 692 571 534 400 915 706 572 568 228 149 179 78 54 163 183 91 134 153
1321 1227 1211 916 469 390 357 384 520 662 569 255 154 138 170 93 106 263 54 55 109 85
1215 1038 805 469 348 298 210 259 218 112 398 320 204 181 173 207 199 77 125 91 41 64
777 496 345 380 243 89 113 138 357 438 317 304 204 88 128 108 126 76 29 57 60 51
232 259 190 274 119 60 74 124 150 198 248 118 45 24 10 49 18 5 8 5 17 26
207 231 230 273 88 62 84 129 120 81 54 52 28 1 23 15 13 21 13 1 2 5
139 103 235 116 112 112 113 89 56 55 83 13 12 11 22 19 21 13 0 1 22 16
97 58 58 151 145 175 127 58 45 49 11 6 5 1 12 5 2 35 6 47 14 25
1 3 48 76 148 197 141 58 30 39 7 3 6 12 12 0 2 4 1 0 21 25
0 0 37 0 89 153 108 29 19 24 36 0 5 9 22 5 0 9 12 2 1 0
1 0 0 33 102 146 117 16 6 14 27 22 6 3 25 16 11 9 7 11 18 6
0 0 0 0 40 83 32 27 4 0 0 2 4 1 7 14 18 28 7 6 1 4
0 0 0 0 3 20 21 7 7 1 0 0 0 0 9 17 15 27 12 14 29 15
0 0 1 0 0 0 0 5 1 3 9 1 8 11 9 0 19 15 13 20 27 10

GFSNIL_con_mucape_099.txt.gz
CAPE
1485 1568 1570 1505 965 807 592 538 361 439 709 830 566 347 510 166 258 171 153 281 121 137
1076 1046 1174 1290 1154 909 557 388 388 477 649 651 598 543 399 279 210 166 254 65 146 198
1060 774 700 919 757 680 463 316 236 442 558 908 704 513 220 99 181 107 100 59 79 157
686 941 1067 1013 934 375 136 25 168 359 874 579 480 251 181 157 144 117 113 162 109 21
693 482 548 504 364 179 50 51 151 214 226 220 267 301 229 150 206 124 126 54 55 26
330 200 224 158 187 139 67 19 95 155 189 141 144 209 76 69 39 16 19 19 37 15
214 142 195 213 189 117 35 30 71 70 69 64 81 62 32 23 9 20 33 2 8 0
53 98 81 141 226 94 60 45 69 40 41 38 41 31 84 41 18 11 7 12 11 2
4 29 29 75 28 29 77 107 12 32 30 42 8 3 2 4 11 4 9 8 3 0
0 0 0 0 2 35 87 86 60 19 12 38 4 4 10 7 2 2 3 3 0 0
1 0 0 0 0 32 50 34 100 7 2 11 0 0 14 18 6 6 1 4 4 10
0 2 0 1 0 4 3 13 42 9 17 5 6 6 0 25 11 5 0 3 4 10
0 0 0 0 0 0 0 20 50 19 4 0 0 0 0 0 1 12 10 1 6 6
0 0 0 0 0 0 0 0 11 19 21 1 0 0 0 0 0 0 0 3 12 4

GFSNIL_con_mucape_102.txt.gz
CAPE
1015 1388 2413 1999 1944 1644 1631 1789 1739 973 964 409 357 580 656 655 1220 972 926 382 248 145
2023 2095 2080 1829 1720 1594 2247 1904 1107 589 413 270 302 625 527 1027 1049 537 290 335 423 132
1455 1586 1586 1678 1784 1193 1701 1210 965 642 636 463 394 602 623 766 436 220 312 388 200 240
1034 1186 1253 1328 1081 1228 969 981 705 506 325 303 404 350 432 409 449 430 174 382 245 283
492 599 763 775 608 798 802 643 632 503 175 151 295 388 390 498 305 367 230 181 89 109
370 226 299 440 407 557 466 377 212 211 168 134 336 395 156 267 265 271 205 232 184 96
284 139 152 137 62 198 100 166 184 221 157 106 68 152 179 130 119 136 150 250 122 134
49 2 61 73 108 148 180 154 102 60 105 139 118 96 50 96 65 82 29 12 70 3
0 13 15 42 67 86 137 99 140 89 49 43 44 33 38 94 89 33 21 7 0 3
0 0 10 0 0 2 98 51 62 49 8 28 46 36 34 12 20 54 18 3 10 8
2 2 0 0 0 0 8 0 0 8 58 79 51 5 7 15 17 20 12 0 2 12
2 0 0 1 0 0 0 0 0 44 16 37 42 0 4 12 16 18 13 5 3 4
0 0 0 0 0 0 0 4 0 9 16 36 8 1 0 9 22 13 9 19 9 9
0 0 0 0 0 0 0 0 0 0 0 22 1 0 0 2 0 3 0 4 7 6

GFSNIL_con_mucape_105.txt.gz
CAPE
8 1 0 176 1176 1856 2225 2021 1443 1597 1856 1377 1273 912 1103 1442 1557 1340 1147 1195 1163 875
261 368 303 1174 1749 2109 2270 1928 1506 1493 1377 1514 1512 1086 1094 815 981 1220 1430 1617 971 580
522 737 1039 1487 1833 1959 2141 2040 1868 1648 1275 1148 812 970 875 435 762 993 1477 1471 1198 773
553 515 555 1130 1259 1676 1922 1723 1481 1340 1168 792 706 276 256 436 269 661 930 589 451 305
110 378 526 546 750 1316 1504 1409 1167 904 1023 858 626 600 130 64 205 431 606 513 334 200
53 92 264 439 590 692 989 904 808 849 815 862 729 633 392 46 21 359 635 552 327 155
24 92 191 214 259 418 514 498 553 583 622 454 482 573 651 334 253 294 371 394 330 295
0 0 0 14 12 123 171 100 211 376 418 193 217 244 179 157 112 98 121 89 90 97
1 0 0 0 1 0 56 25 29 119 107 207 75 61 37 37 208 132 40 22 33 188
0 0 0 0 0 0 0 10 49 71 98 33 31 63 65 41 18 38 54 57 39 40
3 0 0 0 0 0 0 0 23 17 57 93 45 39 28 18 3 20 83 16 32 5
0 0 0 0 0 0 0 0 0 0 13 46 12 4 9 30 10 19 15 39 24 25
0 0 0 0 0 0 0 0 0 0 0 0 0 0 0 0 28 30 21 11 8 3
0 0 0 0 0 0 0 0 0 0 0 0 0 5 0 0 14 25 21 12 6 8

GFSNIL_con_mucape_108.txt.gz
CAPE
4 5 1 3 0 0 0 121 725 1030 1567 1536 1520 1514 1240 998 814 747 864 734 846 752
8 3 34 99 158 14 0 6 1140 1486 1431 1341 1375 1392 1116 896 757 298 535 146 288 632
9 3 174 309 541 604 171 709 1220 1358 1333 1263 1284 1252 1195 847 777 1068 1081 880 737 566
0 0 158 279 558 556 498 831 1191 1350 1310 1159 1210 1123 1140 946 852 586 716 697 502 545
0 0 2 13 93 132 299 490 853 1125 1097 1102 1047 975 801 930 751 500 407 289 396 370
0 0 0 18 53 100 116 172 405 484 745 659 538 739 847 514 295 148 69 174 143 233
0 0 3 6 15 106 267 438 391 403 360 480 414 427 473 323 53 62 49 161 195 241
0 0 1 1 4 4 8 132 153 304 264 292 185 285 304 291 89 55 27 156 134 171
0 0 0 0 0 0 0 2 0 50 176 189 188 167 215 279 225 105 26 7 61 56
0 0 0 0 0 0 4 2 0 1 1 41 40 125 153 191 184 196 92 55 108 117
0 0 0 0 0 0 0 0 0 0 0 13 11 142 128 89 97 100 124 113 78 33
0 0 0 0 0 0 0 0 0 0 4 0 0 14 43 104 109 66 77 23 16 14
0 0 0 0 0 0 0 0 0 0 0 0 0 0 42 49 40 39 14 35 21 3
0 0 0 0 0 0 0 0 0 0 0 0 0 0 0 2 0 7 9 18 26 8

GFSNIL_con_mucape_111.txt.gz
CAPE
0 0 0 0 1 1 0 0 0 0 1 40 515 722 684 712 548 584 680 704 646 597
0 0 1 1 2 2 4 43 6 0 0 0 0 84 474 546 544 682 582 602 655 507
0 0 0 1 5 0 7 50 52 10 0 46 242 37 470 620 720 791 578 223 164 396
0 0 0 0 0 1 0 4 222 158 424 427 553 408 477 710 887 887 558 329 106 56
0 0 0 0 0 0 0 0 1 129 261 556 464 377 544 637 834 706 553 422 225 147
0 0 0 0 0 0 0 0 0 3 9 97 323 457 755 801 741 692 647 433 301 402
0 0 0 0 0 0 0 0 1 40 25 64 54 136 257 475 565 576 619 300 160 48
0 0 0 0 0 0 1 0 5 20 53 76 74 5 58 203 307 366 333 173 54 34
0 0 0 0 0 0 0 1 8 3 2 23 65 40 14 0 100 283 247 28 38 167
3 0 0 0 0 4 0 2 3 4 1 0 16 17 0 33 85 130 149 42 45 17
0 0 0 0 0 0 0 0 3 0 0 0 0 2 0 0 102 74 97 66 35 29
0 0 0 0 0 0 0 0 0 0 0 0 0 0 0 2 1 13 80 104 48 21
0 0 0 0 0 0 0 0 0 0 0 0 0 0 0 0 0 13 63 39 11 22
0 0 0 0 0 0 0 0 0 0 0 0 0 0 0 0 0 0 7 15 3 15

GFSNIL_con_mucape_114.txt.gz
CAPE
0 0 0 0 0 0 0 0 1 0 0 1 0 0 4 231 442 546 378 213 149 131
0 0 0 0 0 0 0 0 2 0 1 2 0 0 2 101 354 492 364 264 240 310
0 0 0 0 0 0 0 0 2 0 0 27 3 0 0 0 255 310 151 231 314 310
0 0 0 0 0 0 0 0 0 0 4 1 149 284 16 5 68 300 220 143 161 316
0 0 0 0 0 0 0 0 0 0 0 0 13 242 391 275 58 218 177 201 135 131
0 0 0 0 0 0 0 0 0 0 0 0 0 0 118 210 170 145 164 185 212 226
0 0 0 0 0 0 0 0 0 0 0 0 1 8 9 25 52 136 186 157 184 356
0 0 0 0 0 0 0 0 0 0 6 9 12 29 24 17 15 0 0 185 347 246
0 0 0 0 0 0 0 0 0 0 4 15 6 0 20 0 0 0 17 187 315 12
0 0 0 0 0 0 0 0 0 3 4 7 2 0 17 21 0 1 0 73 101 95
0 0 0 0 0 0 0 0 0 0 2 0 0 0 0 2 0 0 0 4 54 44
0 0 0 0 0 0 0 0 0 0 0 0 0 0 0 0 0 0 0 4 11 32
0 0 0 0 0 0 0 0 0 0 0 0 0 0 0 0 0 0 0 0 0 0
0 0 0 0 0 0 0 0 0 0 0 0 0 1 4 0 0 0 0 0 0 6

GFSNIL_con_mucape_117.txt.gz
CAPE
0 0 0 0 0 0 0 0 0 0 0 0 0 0 0 3 0 9 103 232 406 375
0 0 0 0 0 0 0 0 0 0 0 0 0 0 2 5 5 0 29 393 215 271
0 0 0 0 0 0 0 0 0 0 0 0 0 0 0 5 17 4 45 146 235 167
0 0 0 0 0 0 0 0 0 0 0 0 0 0 1 2 24 1 1 54 56 118
0 0 0 0 0 0 0 0 0 0 0 0 0 0 0 0 0 51 7 5 46 71
0 0 0 0 0 0 0 0 0 0 0 0 0 0 0 0 6 99 129 35 91 78
0 0 0 0 0 0 0 0 0 0 0 0 0 0 0 0 0 8 62 142 99 103
0 0 0 0 0 0 0 0 0 0 0 0 0 0 0 6 13 8 23 30 39 33
0 0 0 0 0 0 0 0 0 0 0 0 0 1 1 0 1 2 9 0 3 8
0 0 0 0 0 0 0 0 0 0 0 0 0 8 6 1 0 1 0 0 0 0
0 0 0 0 0 0 0 0 0 0 0 0 0 0 0 0 0 0 0 6 0 0
0 0 0 0 0 0 0 0 0 0 0 0 0 0 0 0 0 0 0 0 0 0
0 0 0 0 0 0 0 0 0 0 0 0 0 0 4 11 4 0 0 0 0 0
0 0 0 0 0 0 0 0 0 0 0 0 0 0 0 0 4 2 12 11 0 0

GFSNIL_con_mucape_120.txt.gz
CAPE
0 0 0 0 0 0 0 0 0 0 0 0 0 0 0 0 2 2 0 2 1 39
0 0 0 0 0 0 0 0 0 0 0 0 0 0 0 0 0 4 1 2 2 37
0 0 0 0 0 0 0 0 0 0 0 0 0 0 0 0 3 1 6 7 3 29
0 0 0 0 0 0 0 0 0 0 0 0 0 0 0 0 0 0 0 2 19 33
0 0 0 0 0 0 0 0 0 0 0 0 0 0 0 0 0 0 0 3 10 9
0 0 0 0 0 0 0 0 0 0 0 0 0 0 0 0 0 0 0 3 4 11
0 0 0 0 0 0 0 0 0 0 0 0 0 0 0 0 0 0 2 4 26 46
0 0 0 0 0 0 0 0 0 0 0 0 0 0 0 0 0 0 5 10 34 47
0 0 0 0 0 0 0 0 0 0 0 0 0 0 0 0 0 1 5 9 11 8
0 0 0 0 0 0 0 0 0 0 0 0 0 0 0 0 1 6 3 1 1 6
0 0 0 0 0 0 0 0 0 0 0 0 0 0 0 0 0 0 0 1 1 2
0 0 0 0 0 0 0 0 0 0 0 0 0 0 0 0 0 0 0 0 0 0
0 0 0 0 0 0 0 0 0 0 0 0 0 0 0 0 0 0 0 0 0 0
0 0 0 0 0 0 0 0 0 0 0 0 0 0 0 0 0 0 0 0 0 0

GFSNIL_con_mucape_123.txt.gz
CAPE
0 0 0 0 0 0 0 0 0 0 0 0 0 0 0 0 0 0 0 0 3 0
0 0 0 0 0 0 0 0 0 0 0 0 0 0 0 0 0 0 2 0 1 2
0 0 0 0 0 0 0 0 0 0 0 0 0 0 0 0 0 0 0 2 4 2
0 0 0 0 0 0 0 0 0 0 0 0 0 0 0 0 0 0 0 0 2 2
0 0 0 0 0 0 0 0 0 0 0 0 0 0 0 0 0 0 0 0 2 0
0 0 0 0 0 0 0 0 0 0 0 0 0 0 0 0 0 0 0 0 6 6
0 0 0 0 0 0 0 0 0 0 0 0 0 0 0 0 0 0 0 0 5 15
0 0 0 0 0 0 0 0 0 0 0 0 0 0 0 0 0 0 0 0 7 9
0 0 0 0 0 0 0 0 0 0 0 0 0 0 0 0 0 0 0 0 0 7
0 0 0 0 0 0 0 0 0 0 0 0 0 0 0 0 0 0 0 0 0 1
0 0 0 0 0 0 0 0 0 0 0 0 0 0 0 0 0 0 0 0 0 0
0 0 0 0 0 0 0 0 0 0 0 0 0 0 0 0 0 0 0 0 0 0
0 0 0 0 0 0 0 0 0 0 0 0 0 0 0 0 0 0 0 0 0 0
0 0 0 0 0 0 0 0 0 0 0 0 0 0 0 0 0 0 0 0 0 0

GFSNIL_con_mucape_126.txt.gz
CAPE
0 0 0 0 0 0 0 0 0 0 0 0 0 0 0 0 0 0 0 1 1 0
0 0 0 0 0 0 0 0 0 0 0 0 0 0 0 0 0 0 0 0 0 1
0 0 0 0 0 0 0 0 0 0 0 0 0 0 0 0 0 0 0 0 0 0
0 0 0 0 0 0 0 0 0 0 0 0 0 0 0 0 0 0 0 0 0 0
0 0 0 0 0 0 0 0 0 0 0 0 0 0 0 0 0 0 0 0 0 0
0 0 0 0 0 3 0 0 0 0 0 0 0 0 0 0 0 0 0 2 0 7
0 0 0 0 0 0 0 0 0 0 0 0 0 0 0 0 0 0 0 0 0 0
0 0 0 0 0 0 0 0 0 0 0 0 0 0 0 0 0 0 0 0 0 0
0 0 0 0 0 0 0 0 0 0 0 0 0 0 0 0 0 0 0 0 0 1
0 0 0 0 0 0 0 0 0 0 0 0 0 0 0 0 0 0 0 0 0 0
0 0 0 0 0 0 0 0 0 0 0 0 0 0 0 0 0 0 0 0 0 0
0 0 0 0 0 0 0 0 0 0 0 0 0 0 0 0 0 0 0 0 0 0
0 0 0 0 0 0 0 0 0 0 0 0 0 0 0 0 0 0 0 0 0 0
0 0 0 0 0 0 0 0 0 0 0 0 0 0 0 0 0 0 0 0 0 0